When you browse on this site, cookies collect data to enhance your experience and personalize the content and advertising you see.
Visit our Privacy Policy to learn more. By continuing to use the site, you agree to this use of cookies and data.
  • En España
  • Lista de países
  • Para 7 días
  • Temperatura del agua
  • Mapa Satelital
  • El tiempo en el mapa
  • Informadores
  • user-avatar
    Iniciar sesión

    Tiempo cada hora Ties

    Hoy, 22 Mayo, Miércoles

    Tiempo Temperatura Precipitaciones Viento Presión Humedad
    00:00 +23°C° 0 mm 6 mps 750 mmHg 62%
    01:00 +23°C° 0 mm 6 mps 749 mmHg 63%
    02:00 +23°C° 0 mm 6 mps 749 mmHg 64%
    03:00 +23°C° 0 mm 6 mps 749 mmHg 64%
    04:00 +23°C° 0 mm 6 mps 749 mmHg 65%
    05:00 +22°C° 0 mm 6 mps 749 mmHg 66%
    06:00 +23°C° 0 mm 6 mps 749 mmHg 60%
    07:00 +26°C° 0 mm 7 mps 749 mmHg 54%
    08:00 +27°C° 0 mm 7 mps 750 mmHg 48%
    09:00 +29°C° 0 mm 7 mps 750 mmHg 42%
    10:00 +32°C° 0 mm 7 mps 750 mmHg 36%
    11:00 +34°C° 0 mm 8 mps 750 mmHg 30%
    12:00 +34°C° 0 mm 8 mps 750 mmHg 30%
    13:00 +34°C° 0 mm 8 mps 749 mmHg 30%
    14:00 +34°C° 0 mm 8 mps 749 mmHg 30%
    15:00 +32°C° 0 mm 8 mps 748 mmHg 34%
    16:00 +31°C° 0 mm 8 mps 748 mmHg 39%
    17:00 +29°C° 0 mm 7 mps 748 mmHg 44%
    18:00 +27°C° 0 mm 7 mps 748 mmHg 52%
    19:00 +26°C° 0 mm 6 mps 749 mmHg 59%
    20:00 +23°C° 0 mm 6 mps 749 mmHg 66%
    21:00 +23°C° 0 mm 6 mps 749 mmHg 67%
    22:00 +23°C° 0 mm 6 mps 750 mmHg 68%
    23:00 +22°C° 0 mm 6 mps 750 mmHg 68%

    Mañana, 23 Mayo, Jueves

    Tiempo Temperatura Precipitaciones Viento Presión Humedad
    00:00 +22°C° 0 mm 6 mps 749 mmHg 69%
    01:00 +22°C° 0 mm 6 mps 749 mmHg 70%
    02:00 +22°C° 0 mm 6 mps 749 mmHg 71%
    03:00 +22°C° 0 mm 6 mps 748 mmHg 72%
    04:00 +21°C° 0 mm 6 mps 748 mmHg 74%
    05:00 +21°C° 0 mm 6 mps 748 mmHg 75%
    06:00 +22°C° 0 mm 6 mps 748 mmHg 70%
    07:00 +23°C° 0 mm 6 mps 748 mmHg 65%
    08:00 +24°C° 0 mm 6 mps 749 mmHg 59%
    09:00 +28°C° 0 mm 6 mps 749 mmHg 51%
    10:00 +30°C° 0 mm 6 mps 749 mmHg 43%
    11:00 +33°C° 0 mm 6 mps 749 mmHg 35%
    12:00 +34°C° 0 mm 6 mps 749 mmHg 34%
    13:00 +34°C° 0 mm 6 mps 748 mmHg 33%
    14:00 +34°C° 0 mm 6 mps 748 mmHg 33%
    15:00 +33°C° 0 mm 6 mps 748 mmHg 38%
    16:00 +30°C° 0 mm 6 mps 747 mmHg 43%
    17:00 +29°C° 0 mm 6 mps 747 mmHg 48%
    18:00 +27°C° 0 mm 6 mps 748 mmHg 55%
    19:00 +26°C° 0 mm 6 mps 748 mmHg 62%
    20:00 +23°C° 0 mm 5 mps 748 mmHg 69%
    21:00 +23°C° 0 mm 6 mps 749 mmHg 69%
    22:00 +23°C° 0 mm 6 mps 749 mmHg 70%
    23:00 +23°C° 0 mm 6 mps 749 mmHg 70%

    Pasado mañana, 24 Mayo, Viernes

    Tiempo Temperatura Precipitaciones Viento Presión Humedad
    00:00 +22°C° 0 mm 6 mps 749 mmHg 70%
    01:00 +22°C° 0 mm 6 mps 748 mmHg 71%
    02:00 +22°C° 0 mm 6 mps 748 mmHg 71%
    03:00 +22°C° 0 mm 6 mps 748 mmHg 72%
    04:00 +22°C° 0 mm 6 mps 748 mmHg 73%
    05:00 +22°C° 0 mm 6 mps 748 mmHg 74%
    06:00 +23°C° 0 mm 6 mps 748 mmHg 68%
    07:00 +25°C° 0 mm 5 mps 749 mmHg 61%
    08:00 +26°C° 0 mm 5 mps 749 mmHg 55%
    09:00 +29°C° 0 mm 5 mps 750 mmHg 47%
    10:00 +32°C° 0 mm 4 mps 750 mmHg 39%
    11:00 +34°C° 0 mm 3 mps 750 mmHg 30%
    12:00 +34°C° 0 mm 4 mps 749 mmHg 31%
    13:00 +35°C° 0 mm 5 mps 749 mmHg 31%
    14:00 +36°C° 0 mm 5 mps 748 mmHg 31%
    15:00 +33°C° 0 mm 6 mps 748 mmHg 38%
    16:00 +30°C° 0 mm 6 mps 747 mmHg 44%
    17:00 +28°C° 0 mm 6 mps 747 mmHg 51%
    18:00 +27°C° 0 mm 6 mps 748 mmHg 58%
    19:00 +25°C° 0 mm 5 mps 748 mmHg 65%
    20:00 +23°C° 0 mm 5 mps 749 mmHg 72%
    21:00 +23°C° 0 mm 5 mps 749 mmHg 73%
    22:00 +23°C° 0 mm 5 mps 749 mmHg 74%
    23:00 +22°C° 0 mm 5 mps 749 mmHg 75%

    25 Mayo, Sábado

    Tiempo Temperatura Precipitaciones Viento Presión Humedad
    00:00 +22°C° 0 mm 5 mps 749 mmHg 76%
    01:00 +22°C° 0 mm 5 mps 748 mmHg 77%
    02:00 +22°C° 0 mm 5 mps 748 mmHg 78%
    03:00 +21°C° 0 mm 4 mps 748 mmHg 80%
    04:00 +21°C° 0 mm 4 mps 748 mmHg 81%
    05:00 +21°C° 0 mm 3 mps 748 mmHg 83%
    06:00 +22°C° 0 mm 3 mps 749 mmHg 76%
    07:00 +24°C° 0 mm 3 mps 749 mmHg 70%
    08:00 +25°C° 0 mm 3 mps 750 mmHg 63%
    09:00 +27°C° 0 mm 3 mps 750 mmHg 54%
    10:00 +30°C° 0 mm 3 mps 750 mmHg 44%
    11:00 +33°C° 0 mm 3 mps 750 mmHg 34%
    12:00 +34°C° 0 mm 3 mps 750 mmHg 33%
    13:00 +34°C° 0 mm 4 mps 749 mmHg 32%
    14:00 +35°C° 0 mm 5 mps 748 mmHg 31%
    15:00 +33°C° 0 mm 5 mps 748 mmHg 37%
    16:00 +32°C° 0 mm 6 mps 748 mmHg 42%
    17:00 +29°C° 0 mm 6 mps 748 mmHg 47%
    18:00 +27°C° 0 mm 5 mps 748 mmHg 55%
    19:00 +26°C° 0 mm 5 mps 749 mmHg 63%
    20:00 +23°C° 0 mm 5 mps 749 mmHg 71%
    21:00 +23°C° 0 mm 4 mps 750 mmHg 72%
    22:00 +23°C° 0 mm 4 mps 750 mmHg 73%
    23:00 +22°C° 0 mm 4 mps 750 mmHg 74%

    26 Mayo, Domingo

    Tiempo Temperatura Precipitaciones Viento Presión Humedad
    00:00 +22°C° 0 mm 4 mps 749 mmHg 75%
    01:00 +22°C° 0 mm 4 mps 749 mmHg 76%
    02:00 +22°C° 0 mm 4 mps 748 mmHg 77%
    03:00 +22°C° 0 mm 4 mps 748 mmHg 78%
    04:00 +21°C° 0 mm 4 mps 748 mmHg 79%
    05:00 +21°C° 0 mm 4 mps 749 mmHg 80%
    06:00 +22°C° 0 mm 3 mps 749 mmHg 75%
    07:00 +24°C° 0 mm 2 mps 750 mmHg 70%
    08:00 +25°C° 0 mm 2 mps 750 mmHg 65%
    09:00 +27°C° 0 mm 2 mps 750 mmHg 55%
    10:00 +30°C° 0 mm 3 mps 750 mmHg 45%
    11:00 +33°C° 0 mm 4 mps 750 mmHg 35%
    12:00 +33°C° 0 mm 4 mps 750 mmHg 35%
    13:00 +33°C° 0 mm 5 mps 749 mmHg 34%
    14:00 +34°C° 0 mm 5 mps 749 mmHg 33%
    15:00 +32°C° 0 mm 5 mps 749 mmHg 39%
    16:00 +30°C° 0 mm 6 mps 748 mmHg 44%
    17:00 +28°C° 0 mm 6 mps 748 mmHg 50%
    18:00 +27°C° 0 mm 5 mps 749 mmHg 58%
    19:00 +25°C° 0 mm 4 mps 750 mmHg 66%
    20:00 +24°C° 0 mm 3 mps 750 mmHg 74%
    21:00 +24°C° 0 mm 3 mps 750 mmHg 76%
    22:00 +22°C° 0 mm 3 mps 750 mmHg 78%
    23:00 +22°C° 0 mm 3 mps 750 mmHg 80%

    27 Mayo, Lunes

    Tiempo Temperatura Precipitaciones Viento Presión Humedad
    00:00 +22°C° 0 mm 4 mps 750 mmHg 81%
    01:00 +22°C° 0 mm 4 mps 749 mmHg 82%
    02:00 +21°C° 0 mm 4 mps 749 mmHg 83%
    03:00 +21°C° 0 mm 4 mps 749 mmHg 84%
    04:00 +21°C° 0 mm 4 mps 749 mmHg 84%
    05:00 +21°C° 0 mm 4 mps 749 mmHg 85%
    06:00 +22°C° 0 mm 4 mps 750 mmHg 78%
    07:00 +23°C° 0 mm 4 mps 750 mmHg 70%
    08:00 +25°C° 0 mm 4 mps 750 mmHg 62%
    09:00 +27°C° 0 mm 4 mps 750 mmHg 54%
    10:00 +29°C° 0 mm 5 mps 750 mmHg 45%
    11:00 +32°C° 0 mm 5 mps 750 mmHg 36%
    12:00 +33°C° 0 mm 5 mps 750 mmHg 34%
    13:00 +33°C° 0 mm 5 mps 749 mmHg 33%
    14:00 +34°C° 0 mm 6 mps 749 mmHg 32%
    15:00 +32°C° 0 mm 6 mps 748 mmHg 37%
    16:00 +30°C° 0 mm 6 mps 748 mmHg 42%
    17:00 +28°C° 0 mm 6 mps 748 mmHg 47%
    18:00 +27°C° 0 mm 5 mps 749 mmHg 55%
    19:00 +25°C° 0 mm 5 mps 749 mmHg 63%
    20:00 +23°C° 0 mm 4 mps 750 mmHg 71%
    21:00 +23°C° 0 mm 4 mps 750 mmHg 72%
    22:00 +22°C° 0 mm 4 mps 750 mmHg 74%
    23:00 +22°C° 0 mm 3 mps 750 mmHg 76%
    Mostrar más